Time,TemperatureF,DewpointF,PressureIn,WindDirection,WindDirectionDegrees,WindSpeedMPH,WindSpeedGustMPH,Humidity,HourlyPrecipIn,Conditions,Clouds,dailyrainin,SolarRadiationWatts/m^2,SoftwareType,DateUTC
2013-09-18 00:00:00,54.4,47.0,30.33,WNW,296,4.0,4.0,76,0.00,,,0.00,0.00,VWS V14.01,2013-09-18 04:00:00,
2013-09-18 00:01:00,54.5,45.3,30.33,West,272,6.0,7.0,71,0.00,,,0.00,0.00,VWS V14.01,2013-09-18 04:01:00,
2013-09-18 00:06:00,54.8,46.3,30.33,WNW,285,4.0,7.0,73,0.00,,,0.00,0.00,VWS V14.01,2013-09-18 04:06:00,
2013-09-18 00:11:00,54.8,46.0,30.33,WNW,286,4.0,7.0,72,0.00,,,0.00,0.00,VWS V14.01,2013-09-18 04:11:00,
2013-09-18 00:15:00,54.2,48.2,30.33,WNW,294,3.0,4.0,80,0.00,,,0.00,0.00,VWS V14.01,2013-09-18 04:15:00,
2013-09-18 00:16:00,54.5,46.0,30.33,West,274,5.0,5.0,73,0.00,,,0.00,0.00,VWS V14.01,2013-09-18 04:16:00,
2013-09-18 00:21:00,54.3,45.8,30.33,NW,310,2.0,5.0,73,0.00,,,0.00,0.00,VWS V14.01,2013-09-18 04:21:00,
2013-09-18 00:26:00,54.0,45.9,30.33,WNW,287,5.0,5.0,74,0.00,,,0.00,0.00,VWS V14.01,2013-09-18 04:26:00,
2013-09-18 00:30:00,54.4,48.4,30.33,WNW,286,4.0,5.0,80,0.00,,,0.00,0.00,VWS V14.01,2013-09-18 04:30:00,
2013-09-18 00:31:00,53.9,46.2,30.33,West,281,4.0,5.0,75,0.00,,,0.00,0.00,VWS V14.01,2013-09-18 04:31:00,
2013-09-18 00:36:00,53.8,46.4,30.33,NW,320,3.0,6.0,76,0.00,,,0.00,0.00,VWS V14.01,2013-09-18 04:36:00,
2013-09-18 00:41:00,53.6,46.6,30.33,NW,305,4.0,6.0,77,0.00,,,0.00,0.00,VWS V14.01,2013-09-18 04:41:00,
2013-09-18 00:45:00,54.6,47.2,30.33,WNW,290,4.0,6.0,76,0.00,,,0.00,0.00,VWS V14.01,2013-09-18 04:45:00,
2013-09-18 00:46:00,53.6,46.6,30.33,West,281,4.0,6.0,77,0.00,,,0.00,0.00,VWS V14.01,2013-09-18 04:46:00,
2013-09-18 00:51:00,53.6,46.9,30.33,WNW,286,5.0,6.0,78,0.00,,,0.00,0.00,VWS V14.01,2013-09-18 04:51:00,
2013-09-18 00:57:00,53.7,47.0,30.33,WNW,292,2.0,6.0,78,0.00,,,0.00,0.00,VWS V14.01,2013-09-18 04:57:00,
2013-09-18 01:00:00,54.5,45.3,30.33,West,267,5.0,7.0,71,0.00,,,0.00,0.00,VWS V14.01,2013-09-18 05:00:00,
2013-09-18 01:02:00,53.9,47.2,30.33,WNW,283,4.0,5.0,78,0.00,,,0.00,0.00,VWS V14.01,2013-09-18 05:02:00,
2013-09-18 01:07:00,53.9,47.2,30.33,NW,311,4.0,5.0,78,0.00,,,0.00,0.00,VWS V14.01,2013-09-18 05:07:00,
2013-09-18 01:12:00,53.7,47.3,30.33,NW,306,6.0,8.0,79,0.00,,,0.00,0.00,VWS V14.01,2013-09-18 05:12:00,
2013-09-18 01:15:00,54.6,46.1,30.33,WNW,287,2.0,7.0,73,0.00,,,0.00,0.00,VWS V14.01,2013-09-18 05:15:00,
2013-09-18 01:17:00,53.6,47.3,30.33,NW,306,5.0,7.0,79,0.00,,,0.00,0.00,VWS V14.01,2013-09-18 05:17:00,
2013-09-18 01:22:00,53.4,47.4,30.33,WNW,290,4.0,7.0,80,0.00,,,0.00,0.00,VWS V14.01,2013-09-18 05:22:00,
2013-09-18 01:27:00,53.4,47.7,30.32,NW,314,4.0,7.0,81,0.00,,,0.00,0.00,VWS V14.01,2013-09-18 05:27:00,
2013-09-18 01:30:00,53.9,46.2,30.33,WNW,288,4.0,6.0,75,0.00,,,0.00,0.00,VWS V14.01,2013-09-18 05:30:00,
2013-09-18 01:31:00,53.2,47.2,30.32,NW,307,7.0,7.0,80,0.00,,,0.00,0.00,VWS V14.01,2013-09-18 05:31:00,
2013-09-18 01:36:00,53.0,47.3,30.32,NW,306,4.0,8.0,81,0.00,,,0.00,0.00,VWS V14.01,2013-09-18 05:36:00,
2013-09-18 01:41:00,52.8,47.1,30.32,NW,308,5.0,8.0,81,0.00,,,0.00,0.00,VWS V14.01,2013-09-18 05:41:00,
2013-09-18 01:45:00,53.6,46.6,30.33,West,281,5.0,6.0,77,0.00,,,0.00,0.00,VWS V14.01,2013-09-18 05:45:00,
2013-09-18 01:46:00,52.7,47.4,30.32,NW,308,6.0,8.0,82,0.00,,,0.00,0.00,VWS V14.01,2013-09-18 05:46:00,
2013-09-18 01:51:00,52.7,47.4,30.32,WNW,294,3.0,6.0,82,0.00,,,0.00,0.00,VWS V14.01,2013-09-18 05:51:00,
2013-09-18 01:56:00,52.8,47.5,30.32,WNW,282,4.0,6.0,82,0.00,,,0.00,0.00,VWS V14.01,2013-09-18 05:56:00,
2013-09-18 02:00:00,53.8,47.1,30.33,WNW,282,3.0,6.0,78,0.00,,,0.00,0.00,VWS V14.01,2013-09-18 06:00:00,
2013-09-18 02:01:00,52.8,47.5,30.32,WNW,302,5.0,6.0,82,0.00,,,0.00,0.00,VWS V14.01,2013-09-18 06:01:00,
2013-09-18 02:06:00,52.6,47.3,30.32,NW,322,6.0,7.0,82,0.00,,,0.00,0.00,VWS V14.01,2013-09-18 06:06:00,
2013-09-18 02:11:00,52.6,46.9,30.32,NW,304,2.0,7.0,81,0.00,,,0.00,0.00,VWS V14.01,2013-09-18 06:11:00,
2013-09-18 02:15:00,53.6,47.3,30.33,NW,311,5.0,8.0,79,0.00,,,0.00,0.00,VWS V14.01,2013-09-18 06:15:00,
2013-09-18 02:16:00,52.6,46.9,30.32,NW,310,5.0,7.0,81,0.00,,,0.00,0.00,VWS V14.01,2013-09-18 06:16:00,
2013-09-18 02:21:00,52.5,46.5,30.32,NW,321,3.0,6.0,80,0.00,,,0.00,0.00,VWS V14.01,2013-09-18 06:21:00,
2013-09-18 02:26:00,52.5,46.5,30.32,WNW,286,5.0,6.0,80,0.00,,,0.00,0.00,VWS V14.01,2013-09-18 06:26:00,
2013-09-18 02:30:00,53.2,47.2,30.32,WNW,298,7.0,7.0,80,0.00,,,0.00,0.00,VWS V14.01,2013-09-18 06:30:00,
2013-09-18 02:31:00,52.5,46.5,30.32,WNW,299,3.0,6.0,80,0.00,,,0.00,0.00,VWS V14.01,2013-09-18 06:31:00,
2013-09-18 02:36:00,52.5,46.5,30.31,NW,309,3.0,5.0,80,0.00,,,0.00,0.00,VWS V14.01,2013-09-18 06:36:00,
2013-09-18 02:41:00,52.4,46.1,30.31,WNW,300,3.0,6.0,79,0.00,,,0.00,0.00,VWS V14.01,2013-09-18 06:41:00,
2013-09-18 02:45:00,52.7,47.4,30.32,NW,308,6.0,8.0,82,0.00,,,0.00,0.00,VWS V14.01,2013-09-18 06:45:00,
2013-09-18 02:46:00,52.4,45.8,30.31,NW,311,5.0,6.0,78,0.00,,,0.00,0.00,VWS V14.01,2013-09-18 06:46:00,
2013-09-18 02:51:00,52.4,45.8,30.31,WNW,302,4.0,5.0,78,0.00,,,0.00,0.00,VWS V14.01,2013-09-18 06:51:00,
2013-09-18 02:56:00,52.5,45.5,30.31,NW,316,3.0,5.0,77,0.00,,,0.00,0.00,VWS V14.01,2013-09-18 06:56:00,
2013-09-18 03:00:00,52.8,47.5,30.32,NW,313,5.0,6.0,82,0.00,,,0.00,0.00,VWS V14.01,2013-09-18 07:00:00,
2013-09-18 03:01:00,52.4,45.1,30.31,WNW,299,4.0,5.0,76,0.00,,,0.00,0.00,VWS V14.01,2013-09-18 07:01:00,
2013-09-18 03:06:00,52.4,45.1,30.31,WNW,302,5.0,7.0,76,0.00,,,0.00,0.00,VWS V14.01,2013-09-18 07:06:00,
2013-09-18 03:11:00,52.3,45.0,30.31,NW,309,3.0,7.0,76,0.00,,,0.00,0.00,VWS V14.01,2013-09-18 07:11:00,
2013-09-18 03:15:00,52.6,46.9,30.32,WNW,292,3.0,7.0,81,0.00,,,0.00,0.00,VWS V14.01,2013-09-18 07:15:00,
2013-09-18 03:16:00,52.3,45.0,30.31,WNW,302,3.0,3.0,76,0.00,,,0.00,0.00,VWS V14.01,2013-09-18 07:16:00,
2013-09-18 03:21:00,52.2,44.9,30.31,NW,317,2.0,6.0,76,0.00,,,0.00,0.00,VWS V14.01,2013-09-18 07:21:00,
2013-09-18 03:26:00,52.2,44.9,30.31,WNW,286,4.0,6.0,76,0.00,,,0.00,0.00,VWS V14.01,2013-09-18 07:26:00,
2013-09-18 03:31:00,52.3,45.0,30.31,WNW,290,3.0,4.0,76,0.00,,,0.00,0.00,VWS V14.01,2013-09-18 07:31:00,
2013-09-18 03:36:00,52.3,45.0,30.31,WNW,301,3.0,5.0,76,0.00,,,0.00,0.00,VWS V14.01,2013-09-18 07:36:00,
2013-09-18 03:41:00,52.2,44.9,30.30,NW,306,5.0,6.0,76,0.00,,,0.00,0.00,VWS V14.01,2013-09-18 07:41:00,
2013-09-18 03:45:00,52.4,45.8,30.31,NW,311,5.0,6.0,78,0.00,,,0.00,0.00,VWS V14.01,2013-09-18 07:45:00,
2013-09-18 03:46:00,52.2,44.9,30.30,NW,306,6.0,6.0,76,0.00,,,0.00,0.00,VWS V14.01,2013-09-18 07:46:00,
2013-09-18 03:51:00,52.1,44.8,30.30,WNW,294,4.0,7.0,76,0.00,,,0.00,0.00,VWS V14.01,2013-09-18 07:51:00,
2013-09-18 03:56:00,52.2,45.2,30.30,NW,309,6.0,7.0,77,0.00,,,0.00,0.00,VWS V14.01,2013-09-18 07:56:00,
2013-09-18 04:00:00,52.4,45.1,30.31,NW,304,5.0,5.0,76,0.00,,,0.00,0.00,VWS V14.01,2013-09-18 08:00:00,
2013-09-18 04:01:00,52.4,45.4,30.30,WNW,288,5.0,7.0,77,0.00,,,0.00,0.00,VWS V14.01,2013-09-18 08:01:00,
2013-09-18 04:06:00,52.4,45.8,30.30,WNW,297,5.0,7.0,78,0.00,,,0.00,0.00,VWS V14.01,2013-09-18 08:06:00,
2013-09-18 04:11:00,52.5,45.8,30.30,WNW,303,5.0,7.0,78,0.00,,,0.00,0.00,VWS V14.01,2013-09-18 08:11:00,
2013-09-18 04:15:00,52.3,45.0,30.31,NW,313,3.0,7.0,76,0.00,,,0.00,0.00,VWS V14.01,2013-09-18 08:15:00,
2013-09-18 04:16:00,52.4,46.1,30.30,NW,315,5.0,5.0,79,0.00,,,0.00,0.00,VWS V14.01,2013-09-18 08:16:00,
2013-09-18 04:21:00,52.4,45.8,30.30,WNW,302,5.0,6.0,78,0.00,,,0.00,0.00,VWS V14.01,2013-09-18 08:21:00,
2013-09-18 04:26:00,52.2,45.6,30.30,WNW,302,4.0,6.0,78,0.00,,,0.00,0.00,VWS V14.01,2013-09-18 08:26:00,
2013-09-18 04:30:00,52.3,45.0,30.31,NW,309,4.0,6.0,76,0.00,,,0.00,0.00,VWS V14.01,2013-09-18 08:30:00,
2013-09-18 04:31:00,52.1,45.5,30.30,NW,319,8.0,8.0,78,0.00,,,0.00,0.00,VWS V14.01,2013-09-18 08:31:00,
2013-09-18 04:36:00,52.0,45.0,30.30,WNW,303,6.0,9.0,77,0.00,,,0.00,0.00,VWS V14.01,2013-09-18 08:36:00,
2013-09-18 04:41:00,51.9,45.3,30.30,WNW,292,6.0,9.0,78,0.00,,,0.00,0.00,VWS V14.01,2013-09-18 08:41:00,
2013-09-18 04:45:00,52.2,44.9,30.30,NW,305,4.0,6.0,76,0.00,,,0.00,0.00,VWS V14.01,2013-09-18 08:45:00,
2013-09-18 04:46:00,51.8,45.2,30.30,NW,307,6.0,7.0,78,0.00,,,0.00,0.00,VWS V14.01,2013-09-18 08:46:00,
2013-09-18 04:51:00,51.6,44.6,30.30,NW,317,6.0,10.0,77,0.00,,,0.00,0.00,VWS V14.01,2013-09-18 08:51:00,
2013-09-18 04:56:00,51.5,44.5,30.30,WNW,286,7.0,10.0,77,0.00,,,0.00,0.00,VWS V14.01,2013-09-18 08:56:00,
2013-09-18 05:00:00,52.4,45.4,30.30,WNW,288,5.0,7.0,77,0.00,,,0.00,0.00,VWS V14.01,2013-09-18 09:00:00,
2013-09-18 05:01:00,51.5,44.5,30.30,WNW,283,6.0,9.0,77,0.00,,,0.00,0.00,VWS V14.01,2013-09-18 09:01:00,
2013-09-18 05:06:00,51.4,44.4,30.30,WNW,287,7.0,10.0,77,0.00,,,0.00,0.00,VWS V14.01,2013-09-18 09:06:00,
2013-09-18 05:11:00,51.4,44.4,30.30,West,277,6.0,10.0,77,0.00,,,0.00,0.00,VWS V14.01,2013-09-18 09:11:00,
2013-09-18 05:15:00,52.4,46.1,30.30,WNW,290,3.0,7.0,79,0.00,,,0.00,0.00,VWS V14.01,2013-09-18 09:15:00,
2013-09-18 05:16:00,51.3,44.3,30.30,WNW,293,4.0,7.0,77,0.00,,,0.00,0.00,VWS V14.01,2013-09-18 09:16:00,
2013-09-18 05:21:00,51.3,44.0,30.30,NW,319,8.0,9.0,76,0.00,,,0.00,0.00,VWS V14.01,2013-09-18 09:21:00,
2013-09-18 05:26:00,51.4,44.1,30.30,NW,317,5.0,10.0,76,0.00,,,0.00,0.00,VWS V14.01,2013-09-18 09:26:00,
2013-09-18 05:30:00,52.1,45.5,30.30,NW,312,7.0,8.0,78,0.00,,,0.00,0.00,VWS V14.01,2013-09-18 09:30:00,
2013-09-18 05:31:00,51.3,44.3,30.30,NW,309,8.0,8.0,77,0.00,,,0.00,0.00,VWS V14.01,2013-09-18 09:31:00,
2013-09-18 05:36:00,51.2,44.2,30.30,NW,320,6.0,9.0,77,0.00,,,0.00,0.00,VWS V14.01,2013-09-18 09:36:00,
2013-09-18 05:41:00,51.1,44.2,30.30,WNW,300,8.0,9.0,77,0.00,,,0.00,0.00,VWS V14.01,2013-09-18 09:41:00,
2013-09-18 05:45:00,51.8,45.2,30.30,NW,315,7.0,9.0,78,0.00,,,0.00,0.00,VWS V14.01,2013-09-18 09:45:00,
2013-09-18 05:46:00,51.2,44.2,30.30,WNW,297,7.0,7.0,77,0.00,,,0.00,0.00,VWS V14.01,2013-09-18 09:46:00,
2013-09-18 05:51:00,51.1,44.2,30.30,NW,307,6.0,9.0,77,0.00,,,0.00,0.00,VWS V14.01,2013-09-18 09:51:00,
2013-09-18 05:56:00,51.0,44.0,30.30,NW,320,6.0,9.0,77,0.00,,,0.00,0.00,VWS V14.01,2013-09-18 09:56:00,
2013-09-18 06:00:00,51.5,44.5,30.30,NW,311,8.0,10.0,77,0.00,,,0.00,0.00,VWS V14.01,2013-09-18 10:00:00,
2013-09-18 06:01:00,50.9,44.0,30.30,WNW,299,6.0,7.0,77,0.00,,,0.00,0.00,VWS V14.01,2013-09-18 10:01:00,
2013-09-18 06:06:00,51.0,44.0,30.30,NW,315,7.0,10.0,77,0.00,,,0.00,0.00,VWS V14.01,2013-09-18 10:06:00,
2013-09-18 06:11:00,51.2,44.2,30.31,NW,318,8.0,10.0,77,0.00,,,0.00,0.00,VWS V14.01,2013-09-18 10:11:00,
2013-09-18 06:15:00,51.3,44.3,30.30,NW,305,7.0,10.0,77,0.00,,,0.00,0.00,VWS V14.01,2013-09-18 10:15:00,
2013-09-18 06:16:00,51.2,43.9,30.31,NW,317,9.0,9.0,76,0.00,,,0.00,0.00,VWS V14.01,2013-09-18 10:16:00,
2013-09-18 06:21:00,51.3,44.0,30.31,NW,319,6.0,-999.0,76,-99.99,,,0.00,0,weatherlink.com 1.10,2013-09-18 10:21:00,
2013-09-18 06:26:00,51.3,44.0,30.31,NW,316,6.0,10.0,76,0.00,,,0.00,5.00,VWS V14.01,2013-09-18 10:26:00,
2013-09-18 06:30:00,51.3,44.3,30.30,WNW,301,7.0,10.0,77,0.00,,,0.00,0.00,VWS V14.01,2013-09-18 10:30:00,
2013-09-18 06:31:00,51.3,44.3,30.31,NW,317,6.0,6.0,77,0.00,,,0.00,9.00,VWS V14.01,2013-09-18 10:31:00,
2013-09-18 06:36:00,51.5,44.5,30.31,NW,304,4.0,8.0,77,0.00,,,0.00,12.00,VWS V14.01,2013-09-18 10:36:00,
2013-09-18 06:41:00,51.6,45.0,30.32,NW,315,6.0,8.0,78,0.00,,,0.00,16.00,VWS V14.01,2013-09-18 10:41:00,
2013-09-18 06:45:00,51.2,44.2,30.30,WNW,297,7.0,9.0,77,0.00,,,0.00,0.00,VWS V14.01,2013-09-18 10:45:00,
2013-09-18 06:46:00,51.9,44.9,30.32,WNW,302,5.0,7.0,77,0.00,,,0.00,19.00,VWS V14.01,2013-09-18 10:46:00,
2013-09-18 06:51:00,52.0,44.7,30.32,WNW,291,6.0,9.0,76,0.00,,,0.00,25.00,VWS V14.01,2013-09-18 10:51:00,
2013-09-18 06:56:00,52.2,44.9,30.32,WNW,302,7.0,9.0,76,0.00,,,0.00,35.00,VWS V14.01,2013-09-18 10:56:00,
2013-09-18 07:00:00,50.9,44.0,30.30,NW,307,7.0,9.0,77,0.00,,,0.00,0.00,VWS V14.01,2013-09-18 11:00:00,
2013-09-18 07:01:00,52.2,44.5,30.32,NW,310,7.0,8.0,75,0.00,,,0.00,49.00,VWS V14.01,2013-09-18 11:01:00,
2013-09-18 07:06:00,52.3,44.6,30.32,NW,319,5.0,8.0,75,0.00,,,0.00,62.00,VWS V14.01,2013-09-18 11:06:00,
2013-09-18 07:11:00,52.4,44.7,30.32,NW,306,7.0,8.0,75,0.00,,,0.00,79.00,VWS V14.01,2013-09-18 11:11:00,
2013-09-18 07:15:00,51.2,44.2,30.31,NW,325,6.0,10.0,77,0.00,,,0.00,0.00,VWS V14.01,2013-09-18 11:15:00,
2013-09-18 07:16:00,52.5,44.8,30.32,NW,317,6.0,6.0,75,0.00,,,0.00,97.00,VWS V14.01,2013-09-18 11:16:00,
2013-09-18 07:21:00,52.7,45.4,30.32,NW,314,6.0,9.0,76,0.00,,,0.00,116.00,VWS V14.01,2013-09-18 11:21:00,
2013-09-18 07:26:00,53.0,45.0,30.32,NW,320,6.0,9.0,74,0.00,,,0.00,134.00,VWS V14.01,2013-09-18 11:26:00,
2013-09-18 07:30:00,51.3,44.3,30.31,WNW,297,6.0,10.0,77,0.00,,,0.00,9.00,VWS V14.01,2013-09-18 11:30:00,
2013-09-18 07:31:00,53.2,44.8,30.32,NW,317,8.0,8.0,73,0.00,,,0.00,155.00,VWS V14.01,2013-09-18 11:31:00,
2013-09-18 07:36:00,53.4,45.0,30.32,WNW,294,7.0,9.0,73,0.00,,,0.00,176.00,VWS V14.01,2013-09-18 11:36:00,
2013-09-18 07:41:00,53.6,45.2,30.32,NW,319,7.0,10.0,73,0.00,,,0.00,199.00,VWS V14.01,2013-09-18 11:41:00,
2013-09-18 07:45:00,51.8,44.8,30.32,WNW,293,6.0,9.0,77,0.00,,,0.00,19.00,VWS V14.01,2013-09-18 11:45:00,
2013-09-18 07:46:00,53.8,45.4,30.32,NW,308,4.0,7.0,73,0.00,,,0.00,218.00,VWS V14.01,2013-09-18 11:46:00,
2013-09-18 07:51:00,54.1,45.3,30.32,NW,323,5.0,9.0,72,0.00,,,0.00,241.00,VWS V14.01,2013-09-18 11:51:00,
2013-09-18 07:56:00,54.3,45.5,30.32,NNW,328,5.0,9.0,72,0.00,,,0.00,264.00,VWS V14.01,2013-09-18 11:56:00,
2013-09-18 08:00:00,52.2,44.5,30.32,NW,310,5.0,9.0,75,0.00,,,0.00,47.00,VWS V14.01,2013-09-18 12:00:00,
2013-09-18 08:01:00,54.7,45.9,30.32,NNW,331,7.0,7.0,72,0.00,,,0.00,285.00,VWS V14.01,2013-09-18 12:01:00,
2013-09-18 08:06:00,55.0,45.4,30.32,NW,318,5.0,9.0,70,0.00,,,0.00,302.00,VWS V14.01,2013-09-18 12:06:00,
2013-09-18 08:11:00,55.3,45.3,30.32,WNW,294,8.0,9.0,69,0.00,,,0.00,320.00,VWS V14.01,2013-09-18 12:11:00,
2013-09-18 08:15:00,52.5,44.8,30.32,NW,325,6.0,8.0,75,0.00,,,0.00,97.00,VWS V14.01,2013-09-18 12:15:00,
2013-09-18 08:16:00,55.7,45.7,30.32,WNW,296,5.0,6.0,69,0.00,,,0.00,338.00,VWS V14.01,2013-09-18 12:16:00,
2013-09-18 08:21:00,55.9,45.9,30.32,WNW,292,6.0,8.0,69,0.00,,,0.00,355.00,VWS V14.01,2013-09-18 12:21:00,
2013-09-18 08:26:00,56.2,46.2,30.32,NW,312,3.0,8.0,69,0.00,,,0.00,369.00,VWS V14.01,2013-09-18 12:26:00,
2013-09-18 08:30:00,53.1,44.7,30.32,NW,317,6.0,9.0,73,0.00,,,0.00,155.00,VWS V14.01,2013-09-18 12:30:00,
2013-09-18 08:31:00,56.5,46.5,30.32,WNW,294,4.0,6.0,69,0.00,,,0.00,387.00,VWS V14.01,2013-09-18 12:31:00,
2013-09-18 08:36:00,56.9,46.5,30.31,WNW,300,3.0,7.0,68,0.00,,,0.00,404.00,VWS V14.01,2013-09-18 12:36:00,
2013-09-18 08:41:00,57.3,47.2,30.31,NW,306,4.0,7.0,69,0.00,,,0.00,415.00,VWS V14.01,2013-09-18 12:41:00,
2013-09-18 08:45:00,53.8,45.4,30.32,NW,304,6.0,10.0,73,0.00,,,0.00,218.00,VWS V14.01,2013-09-18 12:45:00,
2013-09-18 08:46:00,57.6,46.7,30.31,WNW,297,2.0,3.0,67,0.00,,,0.00,434.00,VWS V14.01,2013-09-18 12:46:00,
2013-09-18 08:51:00,58.0,47.5,30.31,WNW,289,0.0,6.0,68,0.00,,,0.00,452.00,VWS V14.01,2013-09-18 12:51:00,
2013-09-18 08:56:00,58.5,48.0,30.31,NW,318,2.0,6.0,68,0.00,,,0.00,468.00,VWS V14.01,2013-09-18 12:56:00,
2013-09-18 09:00:00,54.6,45.4,30.32,NW,304,4.0,9.0,71,0.00,,,0.00,281.00,VWS V14.01,2013-09-18 13:00:00,
2013-09-18 09:01:00,58.8,47.1,30.32,NNW,329,5.0,6.0,65,0.00,,,0.00,482.00,VWS V14.01,2013-09-18 13:01:00,
2013-09-18 09:06:00,59.1,47.0,30.31,NW,315,4.0,6.0,64,0.00,,,0.00,497.00,VWS V14.01,2013-09-18 13:06:00,
2013-09-18 09:11:00,59.5,46.9,30.31,NNW,331,3.0,6.0,63,0.00,,,0.00,513.00,VWS V14.01,2013-09-18 13:11:00,
2013-09-18 09:15:00,55.6,46.0,30.32,West,275,4.0,9.0,70,0.00,,,0.00,334.00,VWS V14.01,2013-09-18 13:15:00,
2013-09-18 09:16:00,60.0,47.4,30.31,WNW,292,5.0,5.0,63,0.00,,,0.00,526.00,VWS V14.01,2013-09-18 13:16:00,
2013-09-18 09:21:00,60.3,47.2,30.31,NW,315,4.0,6.0,62,0.00,,,0.00,540.00,VWS V14.01,2013-09-18 13:21:00,
2013-09-18 09:27:00,60.7,47.2,30.31,WNW,286,3.0,6.0,61,0.00,,,0.00,555.00,VWS V14.01,2013-09-18 13:27:00,
2013-09-18 09:30:00,56.5,46.5,30.32,NW,317,3.0,8.0,69,0.00,,,0.00,383.00,VWS V14.01,2013-09-18 13:30:00,
2013-09-18 09:32:00,60.9,46.9,30.31,West,281,2.0,4.0,60,0.00,,,0.00,570.00,VWS V14.01,2013-09-18 13:32:00,
2013-09-18 09:37:00,61.1,46.2,30.31,WNW,293,2.0,7.0,58,0.00,,,0.00,582.00,VWS V14.01,2013-09-18 13:37:00,
2013-09-18 09:42:00,61.3,47.3,30.31,WNW,288,1.0,7.0,60,0.00,,,0.00,594.00,VWS V14.01,2013-09-18 13:42:00,
2013-09-18 09:45:00,57.6,46.7,30.31,NW,314,3.0,8.0,67,0.00,,,0.00,432.00,VWS V14.01,2013-09-18 13:45:00,
2013-09-18 09:47:00,61.7,46.8,30.30,WNW,284,6.0,6.0,58,0.00,,,0.00,608.00,VWS V14.01,2013-09-18 13:47:00,
2013-09-18 09:52:00,61.9,45.6,30.30,West,276,6.0,8.0,55,0.00,,,0.00,624.00,VWS V14.01,2013-09-18 13:52:00,
2013-09-18 09:57:00,62.0,45.2,30.30,West,261,7.0,8.0,54,0.00,,,0.00,635.00,VWS V14.01,2013-09-18 13:57:00,
2013-09-18 10:00:00,58.7,47.0,30.31,NW,317,5.0,7.0,65,0.00,,,0.00,482.00,VWS V14.01,2013-09-18 14:00:00,
2013-09-18 10:02:00,62.1,45.8,30.30,West,269,7.0,8.0,55,0.00,,,0.00,647.00,VWS V14.01,2013-09-18 14:02:00,
2013-09-18 10:07:00,62.2,45.8,30.30,West,281,5.0,8.0,55,0.00,,,0.00,659.00,VWS V14.01,2013-09-18 14:07:00,
2013-09-18 10:12:00,62.5,45.2,30.30,West,265,2.0,8.0,53,0.00,,,0.00,670.00,VWS V14.01,2013-09-18 14:12:00,
2013-09-18 10:15:00,59.9,46.9,30.31,NW,305,3.0,7.0,62,0.00,,,0.00,526.00,VWS V14.01,2013-09-18 14:15:00,
2013-09-18 10:17:00,62.7,45.3,30.30,West,276,4.0,5.0,53,0.00,,,0.00,680.00,VWS V14.01,2013-09-18 14:17:00,
2013-09-18 10:22:00,62.8,45.4,30.30,West,278,6.0,6.0,53,0.00,,,0.00,691.00,VWS V14.01,2013-09-18 14:22:00,
2013-09-18 10:27:00,63.1,44.7,30.29,WNW,291,6.0,6.0,51,0.00,,,0.00,703.00,VWS V14.01,2013-09-18 14:27:00,
2013-09-18 10:30:00,60.9,47.4,30.31,NW,304,2.0,6.0,61,0.00,,,0.00,568.00,VWS V14.01,2013-09-18 14:30:00,
2013-09-18 10:32:00,63.5,44.5,30.29,WNW,284,2.0,3.0,50,0.00,,,0.00,712.00,VWS V14.01,2013-09-18 14:32:00,
2013-09-18 10:37:00,63.7,43.7,30.29,West,263,6.0,8.0,48,0.00,,,0.00,722.00,VWS V14.01,2013-09-18 14:37:00,
2013-09-18 10:42:00,63.6,44.1,30.29,West,279,6.0,8.0,49,0.00,,,0.00,731.00,VWS V14.01,2013-09-18 14:42:00,
2013-09-18 10:45:00,61.6,45.8,30.30,NW,309,1.0,7.0,56,0.00,,,0.00,605.00,VWS V14.01,2013-09-18 14:45:00,
2013-09-18 10:47:00,63.6,44.6,30.29,West,281,6.0,6.0,50,0.00,,,0.00,733.00,VWS V14.01,2013-09-18 14:47:00,
2013-09-18 10:52:00,64.0,43.9,30.29,WNW,287,3.0,6.0,48,0.00,,,0.00,749.00,VWS V14.01,2013-09-18 14:52:00,
2013-09-18 10:57:00,64.4,43.8,30.29,NW,309,4.0,6.0,47,0.00,,,0.00,752.00,VWS V14.01,2013-09-18 14:57:00,
2013-09-18 11:00:00,62.1,45.3,30.30,West,267,8.0,8.0,54,0.00,,,0.00,645.00,VWS V14.01,2013-09-18 15:00:00,
2013-09-18 11:02:00,64.5,43.3,30.28,WSW,250,5.0,8.0,46,0.00,,,0.00,346.00,VWS V14.01,2013-09-18 15:02:00,
2013-09-18 11:07:00,64.3,43.7,30.28,SW,234,2.0,8.0,47,0.00,,,0.00,629.00,VWS V14.01,2013-09-18 15:07:00,
2013-09-18 11:12:00,64.3,46.3,30.28,WSW,241,5.0,8.0,52,0.00,,,0.00,779.00,VWS V14.01,2013-09-18 15:12:00,
2013-09-18 11:15:00,62.7,44.8,30.30,West,269,4.0,8.0,52,0.00,,,0.00,679.00,VWS V14.01,2013-09-18 15:15:00,
2013-09-18 11:17:00,64.4,43.8,30.28,SW,228,4.0,5.0,47,0.00,,,0.00,786.00,VWS V14.01,2013-09-18 15:17:00,
2013-09-18 11:22:00,64.4,43.8,30.28,WSW,241,4.0,7.0,47,0.00,,,0.00,791.00,VWS V14.01,2013-09-18 15:22:00,
2013-09-18 11:27:00,64.4,43.8,30.28,SW,233,5.0,7.0,47,0.00,,,0.00,796.00,VWS V14.01,2013-09-18 15:27:00,
2013-09-18 11:30:00,63.4,45.0,30.29,West,275,3.0,6.0,51,0.00,,,0.00,710.00,VWS V14.01,2013-09-18 15:30:00,
2013-09-18 11:32:00,64.5,44.4,30.28,SW,236,5.0,6.0,48,0.00,,,0.00,802.00,VWS V14.01,2013-09-18 15:32:00,
2013-09-18 11:37:00,64.7,43.5,30.28,SW,236,4.0,6.0,46,0.00,,,0.00,807.00,VWS V14.01,2013-09-18 15:37:00,
2013-09-18 11:42:00,64.9,44.2,30.28,SW,219,4.0,6.0,47,0.00,,,0.00,812.00,VWS V14.01,2013-09-18 15:42:00,
2013-09-18 11:45:00,63.6,44.6,30.29,West,281,6.0,8.0,50,0.00,,,0.00,733.00,VWS V14.01,2013-09-18 15:45:00,
2013-09-18 11:47:00,65.1,44.9,30.28,SW,226,4.0,4.0,48,0.00,,,0.00,814.00,VWS V14.01,2013-09-18 15:47:00,
2013-09-18 11:52:00,65.3,45.1,30.27,SW,236,2.0,5.0,48,0.00,,,0.00,817.00,VWS V14.01,2013-09-18 15:52:00,
2013-09-18 11:57:00,65.6,44.8,30.27,SSW,202,2.0,5.0,47,0.00,,,0.00,823.00,VWS V14.01,2013-09-18 15:57:00,
2013-09-18 12:00:00,64.5,43.8,30.28,WSW,257,8.0,8.0,47,0.00,,,0.00,526.00,VWS V14.01,2013-09-18 16:00:00,
2013-09-18 12:01:00,65.9,44.6,30.27,SW,216,3.0,5.0,46,0.00,,,0.00,823.00,VWS V14.01,2013-09-18 16:01:00,
2013-09-18 12:06:00,66.1,46.4,30.27,SSW,200,6.0,6.0,49,0.00,,,0.00,826.00,VWS V14.01,2013-09-18 16:06:00,
2013-09-18 12:11:00,65.9,45.1,30.27,SSW,193,6.0,7.0,47,0.00,,,0.00,828.00,VWS V14.01,2013-09-18 16:11:00,
2013-09-18 12:15:00,64.4,44.3,30.28,WSW,242,4.0,8.0,48,0.00,,,0.00,784.00,VWS V14.01,2013-09-18 16:15:00,
2013-09-18 12:16:00,65.9,45.1,30.27,SSW,196,6.0,7.0,47,0.00,,,0.00,830.00,VWS V14.01,2013-09-18 16:16:00,
2013-09-18 12:21:00,65.7,45.5,30.27,South,178,5.0,8.0,48,0.00,,,0.00,830.00,VWS V14.01,2013-09-18 16:21:00,
2013-09-18 12:26:00,65.6,46.0,30.26,South,190,7.0,9.0,49,0.00,,,0.00,830.00,VWS V14.01,2013-09-18 16:26:00,
2013-09-18 12:30:00,64.5,44.4,30.28,SW,234,5.0,7.0,48,0.00,,,0.00,802.00,VWS V14.01,2013-09-18 16:30:00,
2013-09-18 12:31:00,65.4,46.8,30.26,South,180,5.0,9.0,51,0.00,,,0.00,830.00,VWS V14.01,2013-09-18 16:31:00,
2013-09-18 12:36:00,65.5,46.4,30.26,South,169,7.0,8.0,50,0.00,,,0.00,830.00,VWS V14.01,2013-09-18 16:36:00,
2013-09-18 12:41:00,65.6,46.0,30.26,SSW,196,8.0,8.0,49,0.00,,,0.00,830.00,VWS V14.01,2013-09-18 16:41:00,
2013-09-18 12:45:00,65.1,44.9,30.28,WSW,240,3.0,6.0,48,0.00,,,0.00,814.00,VWS V14.01,2013-09-18 16:45:00,
2013-09-18 12:46:00,65.4,46.3,30.26,South,171,8.0,9.0,50,0.00,,,0.00,828.00,VWS V14.01,2013-09-18 16:46:00,
2013-09-18 12:51:00,65.2,47.2,30.26,SSW,192,9.0,11.0,52,0.00,,,0.00,826.00,VWS V14.01,2013-09-18 16:51:00,
2013-09-18 12:56:00,65.0,46.5,30.26,South,185,11.0,12.0,51,0.00,,,0.00,824.00,VWS V14.01,2013-09-18 16:56:00,
2013-09-18 13:00:00,65.9,45.7,30.27,SW,216,3.0,5.0,48,0.00,,,0.00,823.00,VWS V14.01,2013-09-18 17:00:00,
2013-09-18 13:01:00,65.0,48.5,30.25,SSW,196,12.0,14.0,55,0.00,,,0.00,821.00,VWS V14.01,2013-09-18 17:01:00,
2013-09-18 13:06:00,64.8,47.3,30.25,SW,215,8.0,15.0,53,0.00,,,0.00,819.00,VWS V14.01,2013-09-18 17:06:00,
2013-09-18 13:11:00,64.7,46.7,30.25,SSW,205,12.0,15.0,52,0.00,,,0.00,816.00,VWS V14.01,2013-09-18 17:11:00,
2013-09-18 13:15:00,65.9,45.1,30.27,SSW,197,7.0,7.0,47,0.00,,,0.00,830.00,VWS V14.01,2013-09-18 17:15:00,
2013-09-18 13:17:00,64.7,48.2,30.25,SSW,210,12.0,14.0,55,0.00,,,0.00,810.00,VWS V14.01,2013-09-18 17:17:00,
2013-09-18 13:22:00,64.7,46.7,30.25,SSW,205,13.0,15.0,52,0.00,,,0.00,807.00,VWS V14.01,2013-09-18 17:22:00,
2013-09-18 13:27:00,64.5,47.0,30.24,SSW,200,15.0,15.0,53,0.00,,,0.00,803.00,VWS V14.01,2013-09-18 17:27:00,
2013-09-18 13:30:00,65.4,46.8,30.26,South,180,5.0,9.0,51,0.00,,,0.00,830.00,VWS V14.01,2013-09-18 17:30:00,
2013-09-18 13:32:00,64.5,45.5,30.24,SSW,202,16.0,16.0,50,0.00,,,0.00,798.00,VWS V14.01,2013-09-18 17:32:00,
2013-09-18 13:37:00,64.6,45.6,30.24,SSW,199,12.0,17.0,50,0.00,,,0.00,793.00,VWS V14.01,2013-09-18 17:37:00,
2013-09-18 13:42:00,64.7,45.7,30.24,SSW,194,15.0,17.0,50,0.00,,,0.00,786.00,VWS V14.01,2013-09-18 17:42:00,
2013-09-18 13:45:00,65.4,46.3,30.26,South,174,9.0,10.0,50,0.00,,,0.00,828.00,VWS V14.01,2013-09-18 17:45:00,
2013-09-18 13:47:00,64.6,48.6,30.24,SSW,199,15.0,16.0,56,0.00,,,0.00,780.00,VWS V14.01,2013-09-18 17:47:00,
2013-09-18 13:52:00,64.5,47.5,30.23,SSW,194,16.0,17.0,54,0.00,,,0.00,773.00,VWS V14.01,2013-09-18 17:52:00,
2013-09-18 13:57:00,64.4,47.9,30.23,SW,214,17.0,17.0,55,0.00,,,0.00,766.00,VWS V14.01,2013-09-18 17:57:00,
2013-09-18 14:00:00,65.0,47.0,30.25,SSW,193,12.0,13.0,52,0.00,,,0.00,821.00,VWS V14.01,2013-09-18 18:00:00,
2013-09-18 14:02:00,64.6,47.6,30.23,SSW,207,17.0,17.0,54,0.00,,,0.00,758.00,VWS V14.01,2013-09-18 18:02:00,
2013-09-18 14:07:00,64.6,47.6,30.23,SSW,202,13.0,19.0,54,0.00,,,0.00,752.00,VWS V14.01,2013-09-18 18:07:00,
2013-09-18 14:12:00,64.5,48.0,30.22,SSW,194,18.0,19.0,55,0.00,,,0.00,742.00,VWS V14.01,2013-09-18 18:12:00,
2013-09-18 14:15:00,64.7,47.2,30.25,SSW,213,14.0,15.0,53,0.00,,,0.00,812.00,VWS V14.01,2013-09-18 18:15:00,
2013-09-18 14:17:00,64.5,46.5,30.22,SSW,205,18.0,18.0,52,0.00,,,0.00,735.00,VWS V14.01,2013-09-18 18:17:00,
2013-09-18 14:22:00,64.5,49.0,30.22,SSW,202,17.0,18.0,57,0.00,,,0.00,726.00,VWS V14.01,2013-09-18 18:22:00,
2013-09-18 14:27:00,64.5,48.5,30.22,SSW,206,18.0,19.0,56,0.00,,,0.00,717.00,VWS V14.01,2013-09-18 18:27:00,
2013-09-18 14:30:00,64.5,45.5,30.24,SW,235,13.0,16.0,50,0.00,,,0.00,800.00,VWS V14.01,2013-09-18 18:30:00,
2013-09-18 14:32:00,64.6,48.6,30.22,SSW,212,18.0,18.0,56,0.00,,,0.00,708.00,VWS V14.01,2013-09-18 18:32:00,
2013-09-18 14:37:00,64.6,47.6,30.22,SSW,207,16.0,19.0,54,0.00,,,0.00,698.00,VWS V14.01,2013-09-18 18:37:00,
2013-09-18 14:42:00,64.9,46.9,30.21,SW,215,16.0,19.0,52,0.00,,,0.00,687.00,VWS V14.01,2013-09-18 18:42:00,
2013-09-18 14:45:00,64.6,46.1,30.23,SSW,196,15.0,17.0,51,0.00,,,0.00,782.00,VWS V14.01,2013-09-18 18:45:00,
2013-09-18 14:47:00,64.9,47.4,30.21,SSW,200,19.0,19.0,53,0.00,,,0.00,679.00,VWS V14.01,2013-09-18 18:47:00,
2013-09-18 14:52:00,64.7,49.1,30.21,SSW,197,17.0,19.0,57,0.00,,,0.00,668.00,VWS V14.01,2013-09-18 18:52:00,
2013-09-18 14:57:00,64.7,46.7,30.21,WSW,252,18.0,21.0,52,0.00,,,0.00,657.00,VWS V14.01,2013-09-18 18:57:00,
2013-09-18 15:00:00,64.6,48.6,30.23,SW,217,16.0,17.0,56,0.00,,,0.00,759.00,VWS V14.01,2013-09-18 19:00:00,
2013-09-18 15:02:00,64.7,47.2,30.20,SSW,208,17.0,21.0,53,0.00,,,0.00,645.00,VWS V14.01,2013-09-18 19:02:00,
2013-09-18 15:07:00,64.7,48.2,30.20,SSW,201,15.0,22.0,55,0.00,,,0.00,633.00,VWS V14.01,2013-09-18 19:07:00,
2013-09-18 15:12:00,64.9,47.9,30.20,SW,217,19.0,22.0,54,0.00,,,0.00,624.00,VWS V14.01,2013-09-18 19:12:00,
2013-09-18 15:15:00,64.5,47.5,30.22,SSW,195,18.0,19.0,54,0.00,,,0.00,735.00,VWS V14.01,2013-09-18 19:15:00,
2013-09-18 15:18:00,65.0,47.5,30.20,SW,221,19.0,20.0,53,0.00,,,0.00,610.00,VWS V14.01,2013-09-18 19:18:00,
2013-09-18 15:23:00,65.0,48.0,30.20,SW,219,20.0,21.0,54,0.00,,,0.00,598.00,VWS V14.01,2013-09-18 19:23:00,
2013-09-18 15:28:00,65.0,49.4,30.19,SW,217,18.0,21.0,57,0.00,,,0.00,584.00,VWS V14.01,2013-09-18 19:28:00,
2013-09-18 15:30:00,64.5,48.5,30.22,SSW,212,17.0,19.0,56,0.00,,,0.00,710.00,VWS V14.01,2013-09-18 19:30:00,
2013-09-18 15:33:00,64.9,48.4,30.19,SSW,209,16.0,21.0,55,0.00,,,0.00,571.00,VWS V14.01,2013-09-18 19:33:00,
2013-09-18 15:38:00,64.9,47.9,30.19,SW,225,18.0,21.0,54,0.00,,,0.00,557.00,VWS V14.01,2013-09-18 19:38:00,
2013-09-18 15:43:00,64.9,49.8,30.19,SSW,201,18.0,21.0,58,0.00,,,0.00,543.00,VWS V14.01,2013-09-18 19:43:00,
2013-09-18 15:45:00,65.0,49.4,30.21,SSW,201,19.0,19.0,57,0.00,,,0.00,682.00,VWS V14.01,2013-09-18 19:45:00,
2013-09-18 15:48:00,65.0,49.4,30.19,SW,222,18.0,21.0,57,0.00,,,0.00,531.00,VWS V14.01,2013-09-18 19:48:00,
2013-09-18 15:53:00,64.8,49.7,30.19,SW,221,18.0,21.0,58,0.00,,,0.00,517.00,VWS V14.01,2013-09-18 19:53:00,
2013-09-18 15:58:00,64.8,49.7,30.19,SW,217,18.0,21.0,58,0.00,,,0.00,501.00,VWS V14.01,2013-09-18 19:58:00,
2013-09-18 16:00:00,64.7,48.2,30.20,SSW,205,16.0,21.0,55,0.00,,,0.00,650.00,VWS V14.01,2013-09-18 20:00:00,
2013-09-18 16:03:00,64.9,48.4,30.19,SSW,209,16.0,21.0,55,0.00,,,0.00,487.00,VWS V14.01,2013-09-18 20:03:00,
2013-09-18 16:08:00,64.9,50.7,30.19,SW,217,17.0,21.0,60,0.00,,,0.00,471.00,VWS V14.01,2013-09-18 20:08:00,
2013-09-18 16:13:00,64.8,48.8,30.19,SW,229,17.0,21.0,56,0.00,,,0.00,457.00,VWS V14.01,2013-09-18 20:13:00,
2013-09-18 16:15:00,64.9,46.9,30.20,SSW,203,19.0,22.0,52,0.00,,,0.00,615.00,VWS V14.01,2013-09-18 20:15:00,
2013-09-18 16:18:00,64.8,50.6,30.19,SW,219,21.0,21.0,60,0.00,,,0.00,441.00,VWS V14.01,2013-09-18 20:18:00,
2013-09-18 16:23:00,64.7,50.1,30.19,SSW,203,19.0,21.0,59,0.00,,,0.00,425.00,VWS V14.01,2013-09-18 20:23:00,
2013-09-18 16:28:00,64.7,50.5,30.18,SW,215,19.0,21.0,60,0.00,,,0.00,408.00,VWS V14.01,2013-09-18 20:28:00,
2013-09-18 16:30:00,64.9,48.4,30.20,SW,230,18.0,21.0,55,0.00,,,0.00,577.00,VWS V14.01,2013-09-18 20:30:00,
2013-09-18 16:33:00,64.7,51.0,30.18,SW,218,20.0,20.0,61,0.00,,,0.00,397.00,VWS V14.01,2013-09-18 20:33:00,
2013-09-18 16:38:00,64.7,51.0,30.18,SW,218,20.0,20.0,61,0.00,,,0.00,397.00,VWS V14.01,2013-09-18 20:38:00,
2013-09-18 16:43:00,64.6,50.0,30.18,SW,219,17.0,21.0,59,0.00,,,0.00,353.00,VWS V14.01,2013-09-18 20:43:00,
2013-09-18 16:45:00,65.0,49.9,30.19,SW,215,19.0,21.0,58,0.00,,,0.00,536.00,VWS V14.01,2013-09-18 20:45:00,
2013-09-18 16:48:00,64.6,50.4,30.18,SW,218,20.0,20.0,60,0.00,,,0.00,304.00,VWS V14.01,2013-09-18 20:48:00,
2013-09-18 16:53:00,64.6,50.4,30.18,SW,223,17.0,21.0,60,0.00,,,0.00,248.00,VWS V14.01,2013-09-18 20:53:00,
2013-09-18 16:58:00,64.5,52.1,30.18,SW,223,17.0,21.0,64,0.00,,,0.00,220.00,VWS V14.01,2013-09-18 20:58:00,
2013-09-18 17:00:00,64.9,48.8,30.19,SW,216,19.0,21.0,56,0.00,,,0.00,494.00,VWS V14.01,2013-09-18 21:00:00,
2013-09-18 17:03:00,64.5,51.6,30.18,SW,219,19.0,21.0,63,0.00,,,0.00,229.00,VWS V14.01,2013-09-18 21:03:00,
2013-09-18 17:08:00,64.6,51.3,30.18,SW,222,15.0,21.0,62,0.00,,,0.00,225.00,VWS V14.01,2013-09-18 21:08:00,
2013-09-18 17:13:00,64.6,50.9,30.18,SW,221,19.0,21.0,61,0.00,,,0.00,218.00,VWS V14.01,2013-09-18 21:13:00,
2013-09-18 17:15:00,64.8,49.2,30.19,SW,220,19.0,21.0,57,0.00,,,0.00,446.00,VWS V14.01,2013-09-18 21:15:00,
2013-09-18 17:19:00,64.5,49.9,30.18,SW,226,18.0,19.0,59,0.00,,,0.00,193.00,VWS V14.01,2013-09-18 21:19:00,
2013-09-18 17:23:00,64.5,50.8,30.18,SW,218,19.0,20.0,61,0.00,,,0.00,160.00,VWS V14.01,2013-09-18 21:23:00,
2013-09-18 17:29:00,64.6,49.0,30.18,SW,227,18.0,21.0,57,0.00,,,0.00,148.00,VWS V14.01,2013-09-18 21:29:00,
2013-09-18 17:30:00,64.7,51.0,30.18,SW,223,17.0,21.0,61,0.00,,,0.00,399.00,VWS V14.01,2013-09-18 21:30:00,
2013-09-18 17:34:00,64.6,49.5,30.18,SSW,213,17.0,20.0,58,0.00,,,0.00,149.00,VWS V14.01,2013-09-18 21:34:00,
2013-09-18 17:39:00,64.6,50.4,30.18,SW,218,18.0,20.0,60,0.00,,,0.00,155.00,VWS V14.01,2013-09-18 21:39:00,
2013-09-18 17:44:00,64.5,50.3,30.18,SW,219,19.0,21.0,60,0.00,,,0.00,146.00,VWS V14.01,2013-09-18 21:44:00,
2013-09-18 17:45:00,64.6,50.0,30.18,SW,225,20.0,21.0,59,0.00,,,0.00,332.00,VWS V14.01,2013-09-18 21:45:00,
2013-09-18 17:49:00,64.5,50.3,30.18,SW,227,18.0,20.0,60,0.00,,,0.00,125.00,VWS V14.01,2013-09-18 21:49:00,
2013-09-18 17:54:00,64.4,50.2,30.18,SW,225,19.0,21.0,60,0.00,,,0.00,102.00,VWS V14.01,2013-09-18 21:54:00,
2013-09-18 17:59:00,64.4,50.2,30.18,SW,222,19.0,21.0,60,0.00,,,0.00,74.00,VWS V14.01,2013-09-18 21:59:00,
2013-09-18 18:00:00,64.6,51.7,30.18,SW,222,21.0,21.0,63,0.00,,,0.00,221.00,VWS V14.01,2013-09-18 22:00:00,
2013-09-18 18:04:00,64.4,51.1,30.18,SW,226,14.0,18.0,62,0.00,,,0.00,40.00,VWS V14.01,2013-09-18 22:04:00,
2013-09-18 18:09:00,64.5,51.2,30.18,SW,227,18.0,20.0,62,0.00,,,0.00,23.00,VWS V14.01,2013-09-18 22:09:00,
2013-09-18 18:14:00,64.4,52.0,30.18,SW,227,21.0,21.0,64,0.00,,,0.00,21.00,VWS V14.01,2013-09-18 22:14:00,
2013-09-18 18:15:00,64.5,49.9,30.18,SW,219,19.0,21.0,59,0.00,,,0.00,209.00,VWS V14.01,2013-09-18 22:15:00,
2013-09-18 18:19:00,64.3,50.6,30.17,SW,218,21.0,21.0,61,0.00,,,0.00,18.00,VWS V14.01,2013-09-18 22:19:00,
2013-09-18 18:24:00,64.3,51.0,30.17,SSW,209,17.0,21.0,62,0.00,,,0.00,16.00,VWS V14.01,2013-09-18 22:24:00,
2013-09-18 18:29:00,64.3,51.5,30.17,SW,228,20.0,21.0,63,0.00,,,0.00,14.00,VWS V14.01,2013-09-18 22:29:00,
2013-09-18 18:30:00,64.6,50.0,30.18,SW,219,13.0,21.0,59,0.00,,,0.00,148.00,VWS V14.01,2013-09-18 22:30:00,
2013-09-18 18:34:00,64.2,52.2,30.17,SW,221,17.0,19.0,65,0.00,,,0.00,12.00,VWS V14.01,2013-09-18 22:34:00,
2013-09-18 18:39:00,64.1,51.3,30.17,SW,219,19.0,20.0,63,0.00,,,0.00,9.00,VWS V14.01,2013-09-18 22:39:00,
2013-09-18 18:44:00,64.0,52.0,30.17,SW,225,20.0,21.0,65,0.00,,,0.00,7.00,VWS V14.01,2013-09-18 22:44:00,
2013-09-18 18:49:00,63.9,52.3,30.17,SW,225,16.0,21.0,66,0.00,,,0.00,5.00,VWS V14.01,2013-09-18 22:49:00,
2013-09-18 18:54:00,63.8,53.0,30.17,SW,234,19.0,21.0,68,0.00,,,0.00,0.00,VWS V14.01,2013-09-18 22:54:00,
2013-09-18 18:59:00,63.7,53.7,30.17,SW,225,22.0,23.0,70,0.00,,,0.00,0.00,VWS V14.01,2013-09-18 22:59:00,
2013-09-18 19:00:00,64.4,51.5,30.18,SW,221,18.0,21.0,63,0.00,,,0.00,58.00,VWS V14.01,2013-09-18 23:00:00,
2013-09-18 19:04:00,63.7,53.7,30.17,WSW,237,20.0,21.0,70,0.00,,,0.00,0.00,VWS V14.01,2013-09-18 23:04:00,
2013-09-18 19:09:00,63.6,52.5,30.17,SW,222,19.0,22.0,67,0.00,,,0.00,0.00,VWS V14.01,2013-09-18 23:09:00,
2013-09-18 19:14:00,63.7,54.5,30.17,SW,229,19.0,22.0,72,0.00,,,0.00,0.00,VWS V14.01,2013-09-18 23:14:00,
2013-09-18 19:15:00,64.4,50.7,30.17,SW,231,17.0,21.0,61,0.00,,,0.00,19.00,VWS V14.01,2013-09-18 23:15:00,
2013-09-18 19:19:00,63.4,54.6,30.17,SW,221,17.0,22.0,73,0.00,,,0.00,0.00,VWS V14.01,2013-09-18 23:19:00,
2013-09-18 19:24:00,63.4,55.0,30.17,SW,236,18.0,22.0,74,0.00,,,0.00,0.00,VWS V14.01,2013-09-18 23:24:00,
2013-09-18 19:29:00,63.4,53.8,30.17,SW,225,22.0,23.0,71,0.00,,,0.00,0.00,VWS V14.01,2013-09-18 23:29:00,
2013-09-18 19:34:00,63.4,53.8,30.17,SW,230,20.0,22.0,71,0.00,,,0.00,0.00,VWS V14.01,2013-09-18 23:34:00,
2013-09-18 19:39:00,63.4,54.6,30.17,SW,227,20.0,22.0,73,0.00,,,0.00,0.00,VWS V14.01,2013-09-18 23:39:00,
2013-09-18 19:44:00,63.4,54.2,30.17,SW,221,20.0,23.0,72,0.00,,,0.00,0.00,VWS V14.01,2013-09-18 23:44:00,
2013-09-18 19:45:00,64.0,52.0,30.17,SW,219,18.0,21.0,65,0.00,,,0.00,7.00,VWS V14.01,2013-09-18 23:45:00,
2013-09-18 19:49:00,63.4,55.3,30.17,SW,223,17.0,19.0,75,0.00,,,0.00,0.00,VWS V14.01,2013-09-18 23:49:00,
2013-09-18 19:54:00,63.4,55.3,30.17,SW,231,17.0,19.0,75,0.00,,,0.00,0.00,VWS V14.01,2013-09-18 23:54:00,
2013-09-18 19:59:00,63.2,55.2,30.17,SW,231,18.0,20.0,75,0.00,,,0.00,0.00,VWS V14.01,2013-09-18 23:59:00,
2013-09-18 20:00:00,63.7,53.3,30.17,SW,224,17.0,23.0,69,0.00,,,0.00,0.00,VWS V14.01,2013-09-19 00:00:00,
2013-09-18 20:04:00,63.3,56.0,30.17,SW,234,16.0,20.0,77,0.00,,,0.00,0.00,VWS V14.01,2013-09-19 00:04:00,
2013-09-18 20:09:00,63.1,55.1,30.17,SW,229,20.0,22.0,75,0.00,,,0.00,0.00,VWS V14.01,2013-09-19 00:09:00,
2013-09-18 20:14:00,63.2,55.9,30.17,WSW,242,18.0,22.0,77,0.00,,,0.00,0.00,VWS V14.01,2013-09-19 00:14:00,
2013-09-18 20:15:00,63.6,54.8,30.17,SW,214,22.0,22.0,73,0.00,,,0.00,0.00,VWS V14.01,2013-09-19 00:15:00,
2013-09-18 20:19:00,63.1,55.4,30.17,SW,235,22.0,22.0,76,0.00,,,0.00,0.00,VWS V14.01,2013-09-19 00:19:00,
2013-09-18 20:24:00,63.0,55.3,30.17,WSW,242,19.0,22.0,76,0.00,,,0.00,0.00,VWS V14.01,2013-09-19 00:24:00,
2013-09-18 20:29:00,63.1,56.1,30.18,WSW,243,18.0,22.0,78,0.00,,,0.00,0.00,VWS V14.01,2013-09-19 00:29:00,
2013-09-18 20:30:00,63.4,53.5,30.17,SW,229,18.0,23.0,70,0.00,,,0.00,0.00,VWS V14.01,2013-09-19 00:30:00,
2013-09-18 20:34:00,62.9,55.2,30.17,SW,234,17.0,20.0,76,0.00,,,0.00,0.00,VWS V14.01,2013-09-19 00:34:00,
2013-09-18 20:39:00,62.9,55.2,30.17,SW,234,16.0,20.0,76,0.00,,,0.00,0.00,VWS V14.01,2013-09-19 00:39:00,
2013-09-18 20:44:00,62.9,55.9,30.17,SW,230,19.0,20.0,78,0.00,,,0.00,0.00,VWS V14.01,2013-09-19 00:44:00,
2013-09-18 20:45:00,63.4,55.0,30.17,SW,232,16.0,23.0,74,0.00,,,0.00,0.00,VWS V14.01,2013-09-19 00:45:00,
2013-09-18 20:49:00,62.9,55.6,30.17,WSW,239,17.0,21.0,77,0.00,,,0.00,0.00,VWS V14.01,2013-09-19 00:49:00,
2013-09-18 20:54:00,62.9,55.6,30.17,SW,234,17.0,21.0,77,0.00,,,0.00,0.00,VWS V14.01,2013-09-19 00:54:00,
2013-09-18 20:59:00,62.9,55.9,30.17,WSW,237,16.0,21.0,78,0.00,,,0.00,0.00,VWS V14.01,2013-09-19 00:59:00,
2013-09-18 21:00:00,63.2,55.2,30.17,WSW,239,14.0,20.0,75,0.00,,,0.00,0.00,VWS V14.01,2013-09-19 01:00:00,
2013-09-18 21:04:00,62.8,55.5,30.17,SW,229,20.0,20.0,77,0.00,,,0.00,0.00,VWS V14.01,2013-09-19 01:04:00,
2013-09-18 21:10:00,62.8,55.5,30.17,SW,232,17.0,21.0,77,0.00,,,0.00,0.00,VWS V14.01,2013-09-19 01:10:00,
2013-09-18 21:15:00,62.9,55.9,30.17,SW,227,17.0,21.0,78,0.00,,,0.00,0.00,VWS V14.01,2013-09-19 01:15:00,
2013-09-18 21:20:00,62.8,55.1,30.18,SW,232,19.0,20.0,76,0.00,,,0.00,0.00,VWS V14.01,2013-09-19 01:20:00,
2013-09-18 21:25:00,62.8,55.8,30.17,SW,229,16.0,20.0,78,0.00,,,0.00,0.00,VWS V14.01,2013-09-19 01:25:00,
2013-09-18 21:30:00,62.8,55.8,30.17,WSW,242,15.0,20.0,78,0.00,,,0.00,0.00,VWS V14.01,2013-09-19 01:30:00,
2013-09-18 21:35:00,62.8,56.2,30.17,WSW,238,19.0,20.0,79,0.00,,,0.00,0.00,VWS V14.01,2013-09-19 01:35:00,
2013-09-18 21:40:00,62.7,56.1,30.18,SW,234,17.0,20.0,79,0.00,,,0.00,0.00,VWS V14.01,2013-09-19 01:40:00,
2013-09-18 21:45:00,62.7,56.5,30.18,WSW,242,16.0,20.0,80,0.00,,,0.00,0.00,VWS V14.01,2013-09-19 01:45:00,
2013-09-18 21:50:00,62.7,56.5,30.17,WSW,246,18.0,19.0,80,0.00,,,0.00,0.00,VWS V14.01,2013-09-19 01:50:00,
2013-09-18 21:55:00,62.6,56.7,30.17,SW,235,17.0,19.0,81,0.00,,,0.00,0.00,VWS V14.01,2013-09-19 01:55:00,
2013-09-18 22:00:00,62.6,56.7,30.17,SW,235,17.0,19.0,81,0.00,,,0.00,0.00,VWS V14.01,2013-09-19 02:00:00,
2013-09-18 22:05:00,62.6,57.0,30.18,SW,235,13.0,17.0,82,0.00,,,0.00,0.00,VWS V14.01,2013-09-19 02:05:00,
2013-09-18 22:10:00,62.5,56.6,30.18,SW,234,16.0,18.0,81,0.00,,,0.00,0.00,VWS V14.01,2013-09-19 02:10:00,
2013-09-18 22:15:00,62.4,56.5,30.17,SW,236,15.0,18.0,81,0.00,,,0.00,0.00,VWS V14.01,2013-09-19 02:15:00,
2013-09-18 22:20:00,62.4,56.5,30.18,WSW,249,19.0,19.0,81,0.00,,,0.00,0.00,VWS V14.01,2013-09-19 02:20:00,
2013-09-18 22:25:00,62.4,56.8,30.18,WSW,240,16.0,19.0,82,0.00,,,0.00,0.00,VWS V14.01,2013-09-19 02:25:00,
2013-09-18 22:30:00,62.3,56.7,30.17,WSW,238,18.0,21.0,82,0.00,,,0.00,0.00,VWS V14.01,2013-09-19 02:30:00,
2013-09-18 22:35:00,62.3,56.7,30.17,WSW,240,15.0,20.0,82,0.00,,,0.00,0.00,VWS V14.01,2013-09-19 02:35:00,
2013-09-18 22:40:00,62.2,56.3,30.17,WSW,240,17.0,20.0,81,0.00,,,0.00,0.00,VWS V14.01,2013-09-19 02:40:00,
2013-09-18 22:45:00,62.2,56.6,30.17,WSW,245,18.0,20.0,82,0.00,,,0.00,0.00,VWS V14.01,2013-09-19 02:45:00,
2013-09-18 22:50:00,62.1,56.9,30.17,WSW,238,16.0,19.0,83,0.00,,,0.00,0.00,VWS V14.01,2013-09-19 02:50:00,
2013-09-18 22:55:00,62.1,57.2,30.17,WSW,243,16.0,19.0,84,0.00,,,0.00,0.00,VWS V14.01,2013-09-19 02:55:00,
2013-09-18 23:00:00,61.9,57.0,30.17,WSW,246,14.0,19.0,84,0.00,,,0.00,0.00,VWS V14.01,2013-09-19 03:00:00,
2013-09-18 23:06:00,61.9,57.0,30.17,WSW,238,15.0,18.0,84,0.00,,,0.00,0.00,VWS V14.01,2013-09-19 03:06:00,
2013-09-18 23:11:00,61.8,56.9,30.16,WSW,243,15.0,18.0,84,0.00,,,0.00,0.00,VWS V14.01,2013-09-19 03:11:00,
2013-09-18 23:15:00,62.4,56.5,30.17,WSW,241,15.0,18.0,81,0.00,,,0.00,0.00,VWS V14.01,2013-09-19 03:15:00,
2013-09-18 23:16:00,61.7,56.8,30.17,WSW,248,14.0,18.0,84,0.00,,,0.00,0.00,VWS V14.01,2013-09-19 03:16:00,
2013-09-18 23:21:00,61.5,56.6,30.17,WSW,257,15.0,18.0,84,0.00,,,0.00,0.00,VWS V14.01,2013-09-19 03:21:00,
2013-09-18 23:26:00,61.3,56.4,30.16,WSW,246,14.0,18.0,84,0.00,,,0.00,0.00,VWS V14.01,2013-09-19 03:26:00,
2013-09-18 23:30:00,62.3,56.4,30.17,WSW,242,19.0,21.0,81,0.00,,,0.00,0.00,VWS V14.01,2013-09-19 03:30:00,
2013-09-18 23:31:00,61.2,57.0,30.16,WSW,243,15.0,18.0,86,0.00,,,0.00,0.00,VWS V14.01,2013-09-19 03:31:00,
2013-09-18 23:36:00,61.0,56.5,30.16,WSW,252,13.0,17.0,85,0.00,,,0.00,0.00,VWS V14.01,2013-09-19 03:36:00,
2013-09-18 23:41:00,61.0,56.5,30.16,WSW,248,15.0,17.0,85,0.00,,,0.00,0.00,VWS V14.01,2013-09-19 03:41:00,
2013-09-18 23:45:00,62.2,56.7,30.17,WSW,242,17.0,20.0,82,0.00,,,0.00,0.00,VWS V14.01,2013-09-19 03:45:00,
2013-09-18 23:46:00,60.9,56.4,30.16,WSW,248,16.0,17.0,85,0.00,,,0.00,0.00,VWS V14.01,2013-09-19 03:46:00,
2013-09-18 23:51:00,60.9,56.7,30.16,WSW,242,12.0,17.0,86,0.00,,,0.00,0.00,VWS V14.01,2013-09-19 03:51:00,
2013-09-18 23:56:00,60.9,56.7,30.16,WSW,245,16.0,17.0,86,0.00,,,0.00,0.00,VWS V14.01,2013-09-19 03:56:00,